Location: Newark
(34.9500°N, 139.9667°E)
Time: 21:14:03
(UTC+00:00)

Altair - Pass Details

Date: 19 December 2019
Orbit: 1502 x 1682 km, 47.2° (Epoch: 20 January)

Event Time Altitude Azimuth Distance (km) Brightness Sun altitude
Rises 09:13:15 0° 239° (WSW) 4,872 11.5 -20.2°
Reaches altitude 10° 09:16:26 10° 241° (WSW) 3,866 10.7 -20.9°
Maximum altitude 09:26:18 77° 327° (NNW) 1,628 7.6 -22.8°
Enters shadow 09:31:23 33° 48° (NE) 2,422 8.0 -23.8°
